星链-4633 (STARLINK-4633 )

导读 | 星芒AI

STARLINK-4633 是 SpaceX Starlink 卫星互联网项目中的一颗低轨卫星,属于第 5 批次部署的星链卫星之一。该卫星于 2020 年 11 月 19 日由猎鹰 9 号火箭发射升空,运行在约 550 公里的轨道高度,旨在为全球提供高速、低延迟的宽带互联网服务。STARLINK-4633 采用先进的星载通信技术,支持 Ku 和 Ka 频段,具备自动规避太空碎片的能力,是 SpaceX 构建全球卫星网络的重要组成部分。

基本信息
目录编号:
53964
目录名称:
STARLINK-4633
国际标识:
2022-125A
轨道中心:
EARTH
卫星名称:
星链-4633
卫星全名:
星链-4633 (STARLINK-4633 )
卫星状态:
在轨 (已飞行1173 天)
发射日期:
2022-10-05 UTC
国别 :
美国 (US)
星等 :
--
轨道信息
数据来源 国际轨道数据 AOE轨道数据
星历时间 2025-12-21T05:19:32+0800
11小时前
查看轨道信息
2025-12-20T20:00:00+0800
20小时前
查看轨道信息
半长轴 6917.887km 6917.883km
偏心率 0.0001387 0.000053
轨道倾角 53.216° 53.210°
近地点辐角 89.855° 83.717°
升交点赤经 218.027° 219.777°
平近点角 270.260° 324.647°
近地点 538.79km 539.379km
远地点 540.71km 540.113km
周期 95.438分钟 95.438分钟
每日圈数 15.08838 15.088393
详细信息
固有亮度:
5
最大亮度:
2.5
卫星平台:
Starlink v1.5
覆盖范围:
全球
运营商:
太空探索技术公司
运营商所在国:
美国
制造商(研发单位):
太空探索技术公司
制造商所在国:
美国
使用方式:
暂无
卫星简介
星链(Starlink)计划是由太空探索技术公司(SpaceX)提出的一个巨型低轨卫星互联网星座项目,计划在2019年至2024年间在太空搭建由约1.2万颗卫星组成的“星链”网络,其中1584颗将部署在地球上空550千米处的近地轨道,并从2020年开始工作。该卫星仍在工作。
2D轨道图
3D轨道图
轨道高度分析图
轨道倾角分析图
轨道综合分析图
查看轨道综合分析图